Overview Statistics Trail Chart Weather Telemetry Raw packets
 

This is the latest recevied weather packets stored in our database for station/object KG5WBN. If no packets are shown the sender has not sent any weather packets the latest 10 day(s).

<< 5 6 7 8 9 10 11 >>
Time Temp. Humidity Pressure Rain* Wind** Luminosity Snow
1788530953 26.11° C 99% 1014.6 hPa 0 mm - 63 W/m² -
1788530652 26.11° C 99% 1014.6 hPa 0 mm - 56 W/m² -
1788530352 25.56° C 99% 1014.6 hPa 0 mm - 57 W/m² -
1788530052 25.56° C 99% 1014.6 hPa 0 mm - 63 W/m² -
1788529748 25.56° C 99% 1014.6 hPa 0 mm - 77 W/m² -
1788529448 25° C 99% 1014.2 hPa 0 mm - 90 W/m² -
1788529164 25.56° C 99% 1014.6 hPa 0 mm - 89 W/m² -
1788528838 25° C 99% 1014.2 hPa 0 mm - 80 W/m² -
1788528533 25° C 99% 1013.9 hPa 0 mm - 63 W/m² -
1788528227 24.44° C 99% 1013.9 hPa 0 mm - 50 W/m² -
1788527922 24.44° C 99% 1014.2 hPa 0 mm - 45 W/m² -
1788527617 24.44° C 99% 1013.9 hPa 0 mm - 40 W/m² -
1788527312 24.44° C 99% 1013.9 hPa 0 mm - 39 W/m² -
1788527011 24.44° C 99% 1014.2 hPa 0 mm - 36 W/m² -
1788526706 24.44° C 99% 1013.9 hPa 0 mm - 30 W/m² -
1788526403 24.44° C 99% 1013.9 hPa 0 mm - 25 W/m² -
1788526102 24.44° C 99% 1013.9 hPa 0 mm - 21 W/m² -
1788525799 24.44° C 99% 1013.9 hPa 0 mm - 18 W/m² -
1788525493 23.89° C 99% 1013.9 hPa 0 mm - 15 W/m² -
1788525188 23.89° C 99% 1013.9 hPa 0 mm - 13 W/m² -
1788524883 23.89° C 99% 1014.6 hPa 0 mm - 9 W/m² -
1788524583 23.89° C 99% 1014.2 hPa 0 mm - 5 W/m² -
1788524278 23.33° C 99% 1014.2 hPa 1.27 mm - 4 W/m² -
1788523974 23.89° C 99% 1013.5 hPa 1.27 mm - 2 W/m² -
1788523671 23.89° C 99% 1013.5 hPa 0 mm - 1 W/m² -

* Rain latest hour (hover to see other rain measurements)
** Current wind speed in m/s (hover to see current wind gust speed)